Gwinner, ND

12:56 AM CST on February 25, 2018 (GMT -0600)
Gwinner-melroe

Weather History for KGWR - October, 2012

Change the Weather History Date:

Tuesday, October 9, 2012

  Actual Average (KP67) Record (KP67)
Temperature  
Mean Temperature 40 °F -  
Max Temperature 44 °F 65 °F 57 °F (1997)
Min Temperature 35 °F 38 °F 30 °F (1996)
Degree Days  
Heating Degree Days 26    
Moisture  
Dew Point 29 °F    
Average Humidity 64    
Maximum Humidity 75    
Minimum Humidity 53    
Precipitation  
Precipitation 0.00 in - - ()
Sea Level Pressure  
Sea Level Pressure 29.79 in    
Wind  
Wind Speed 14 mph (WNW)    
Max Wind Speed 26 mph    
Max Gust Speed 33 mph    
Visibility 10 miles    
Events      
Averages and records for this station are not official NWS values.
T = Trace of Precipitation, MM = Missing Value Source: NWS Daily Summary

Daily Weather History Graph

Daily Weather History Graph

Search for Another Location

Airport or City:

Trip Planner

Search our weather history database for the weather conditions in past years. The results will help you decide how hot, cold, wet, or windy it might be!

Date:

Astronomy

Oct. 09, 2012 Rise Set
Actual Time 7:40 AM CDT 6:54 PM CDT
Civil Twilight 7:10 AM CDT 7:24 PM CDT
Nautical Twilight 6:35 AM CDT 7:58 PM CDT
Astronomical Twilight 6:00 AM CDT 8:33 PM CDT
Moon 12:58 AM CDT (10/9) 3:40 PM CDT (10/9)
Length of Visible Light 12h 14m
Length of Day
11h 13m
Last Quarter, 36% of the Moon is Illuminated
Oct 9
Last Quarter
Oct 15
New
Oct 21
First Quarter
Oct 29
Full
Nov 6
Last Quarter

Hourly Weather History & Observations

Time (CDT) Temp. Windchill Dew Point Humidity Pressure Visibility Wind Dir Wind Speed Gust Speed Precip Events Conditions
12:15 AM 39.2 °F 32.5 °F 30.2 °F 70% 29.74 in 10.0 mi West 10.4 mph - 0.00 in   Clear
12:35 AM 39.2 °F 32.5 °F 30.2 °F 70% 29.74 in 10.0 mi West 10.4 mph - 0.00 in   Clear
12:55 AM 39.2 °F 32.5 °F 30.2 °F 70% 29.75 in 10.0 mi West 10.4 mph - 0.00 in   Mostly Cloudy
1:15 AM 41.0 °F 34.3 °F 30.2 °F 65% 29.75 in 10.0 mi West 11.5 mph - 0.00 in   Mostly Cloudy
1:35 AM 42.8 °F 36.2 °F 30.2 °F 61% 29.75 in 10.0 mi West 12.7 mph - 0.00 in   Mostly Cloudy
1:55 AM 44.6 °F 38.8 °F 30.2 °F 57% 29.75 in 10.0 mi West 11.5 mph - 0.00 in   Mostly Cloudy
2:15 AM 44.6 °F 39.7 °F 30.2 °F 57% 29.75 in 10.0 mi West 9.2 mph - 0.00 in   Mostly Cloudy
2:35 AM 44.6 °F 39.2 °F 30.2 °F 57% 29.76 in 10.0 mi West 10.4 mph - 0.00 in   Overcast
3:15 AM 44.6 °F 37.8 °F 28.4 °F 53% 29.76 in 10.0 mi WNW 15.0 mph - 0.00 in   Mostly Cloudy
3:35 AM 42.8 °F 35.4 °F 28.4 °F 57% 29.76 in 10.0 mi WNW 15.0 mph 19.6 mph 0.00 in   Mostly Cloudy
3:55 AM 42.8 °F 34.8 °F 28.4 °F 57% 29.76 in 10.0 mi West 17.3 mph - 0.00 in   Mostly Cloudy
4:15 AM 41.0 °F 33.1 °F 26.6 °F 57% 29.76 in 10.0 mi WNW 15.0 mph - 0.00 in   Clear
4:35 AM 39.2 °F 30.5 °F 26.6 °F 61% 29.76 in 10.0 mi WNW 16.1 mph - 0.00 in   Clear
4:55 AM 39.2 °F 30.5 °F 26.6 °F 61% 29.76 in 10.0 mi West 16.1 mph 19.6 mph 0.00 in   Partly Cloudy
5:15 AM 39.2 °F 32.0 °F 26.6 °F 61% 29.77 in 10.0 mi West 11.5 mph - 0.00 in   Partly Cloudy
5:35 AM 37.4 °F 29.8 °F 26.6 °F 65% 29.77 in 10.0 mi West 11.5 mph - 0.00 in   Clear
5:55 AM 37.4 °F 30.3 °F 26.6 °F 65% 29.77 in 10.0 mi West 10.4 mph - 0.00 in   Clear
6:15 AM 35.6 °F 26.6 °F 26.6 °F 70% 29.77 in 10.0 mi West 13.8 mph - 0.00 in   Clear
6:35 AM 37.4 °F 28.5 °F 26.6 °F 65% 29.77 in 10.0 mi West 15.0 mph - 0.00 in   Clear
7:15 AM 37.4 °F 28.2 °F 26.6 °F 65% 29.77 in 10.0 mi West 16.1 mph 24.2 mph 0.00 in   Overcast
7:35 AM 39.2 °F 30.8 °F 26.6 °F 61% 29.77 in 10.0 mi West 15.0 mph - 0.00 in   Overcast
7:55 AM 39.2 °F 30.5 °F 26.6 °F 61% 29.77 in 10.0 mi West 16.1 mph - 0.00 in   Overcast
8:15 AM 39.2 °F 29.3 °F 28.4 °F 65% 29.77 in 10.0 mi West 20.7 mph 26.5 mph 0.00 in   Overcast
8:35 AM 41.0 °F 32.5 °F 30.2 °F 65% 29.78 in 10.0 mi WNW 17.3 mph 27.6 mph 0.00 in   Overcast
9:15 AM 39.2 °F 29.3 °F 32.0 °F 75% 29.80 in 8.0 mi NW 20.7 mph 33.4 mph 0.00 in   Overcast
9:35 AM 39.2 °F 29.6 °F 32.0 °F 75% 29.81 in 10.0 mi WNW 19.6 mph 26.5 mph 0.00 in   Overcast
9:55 AM 41.0 °F 31.4 °F 32.0 °F 70% 29.81 in 10.0 mi NW 21.9 mph 26.5 mph 0.00 in   Mostly Cloudy
10:15 AM 41.0 °F 30.7 °F 32.0 °F 70% 29.83 in 10.0 mi NW 25.3 mph 32.2 mph 0.00 in   Overcast
10:35 AM 39.2 °F 28.5 °F 32.0 °F 75% 29.85 in 10.0 mi NNW 24.2 mph 33.4 mph 0.00 in   Overcast
10:55 AM 41.0 °F 30.5 °F 30.2 °F 65% 29.87 in 10.0 mi NNW 26.5 mph 31.1 mph 0.00 in   Overcast
11:15 AM 41.0 °F 31.1 °F 30.2 °F 65% 29.88 in 10.0 mi NNW 23.0 mph 32.2 mph 0.00 in   Overcast
11:35 AM 41.0 °F 30.9 °F 30.2 °F 65% 29.90 in 10.0 mi NNW 24.2 mph 31.1 mph 0.00 in   Overcast
11:55 AM 39.2 °F 28.7 °F 30.2 °F 70% 29.91 in 10.0 mi NNW 23.0 mph 28.8 mph 0.00 in   Overcast
12:15 PM 41.0 °F 31.9 °F 30.2 °F 65% 29.92 in 10.0 mi NNW 19.6 mph - 0.00 in   Overcast
12:35 PM - - - N/A% - - North - - 0.00 in   Unknown
12:55 PM - - - N/A% - - North - - 0.00 in   Unknown
1:15 PM - - - N/A% - - North - - 0.00 in   Unknown
1:35 PM - - - N/A% - - North - - 0.00 in   Unknown
1:55 PM - - - N/A% - - North - - 0.00 in   Unknown
2:15 PM - - - N/A% - - North - - 0.00 in   Unknown
2:35 PM - - - N/A% - - North - - 0.00 in   Unknown
2:55 PM - - - N/A% - - North - - 0.00 in   Unknown
3:15 PM - - - N/A% - - North - - 0.00 in   Unknown
3:35 PM - - - N/A% - - North - - 0.00 in   Unknown
3:55 PM - - - N/A% - - North - - 0.00 in   Unknown
4:15 PM - - - N/A% - - North - - 0.00 in   Unknown
4:35 PM - - - N/A% - - North - - 0.00 in   Unknown
4:55 PM - - - N/A% - - North - - 0.00 in   Unknown
5:15 PM - - - N/A% - - North - - 0.00 in   Unknown
5:35 PM - - - N/A% - - North - - 0.00 in   Unknown
5:55 PM - - - N/A% - - North - - 0.00 in   Unknown
6:15 PM - - - N/A% - - North - - 0.00 in   Unknown
6:35 PM - - - N/A% - - North - - 0.00 in   Unknown
6:55 PM - - - N/A% - - North - - 0.00 in   Unknown
7:15 PM - - - N/A% - - North - - 0.00 in   Unknown
7:35 PM - - - N/A% - - North - - 0.00 in   Unknown
7:55 PM - - - N/A% - - North - - 0.00 in   Unknown
8:15 PM - - - N/A% - - North - - 0.00 in   Unknown
8:35 PM - - - N/A% - - North - - 0.00 in   Unknown
8:55 PM - - - N/A% - - North - - 0.00 in   Unknown
9:15 PM - - - N/A% - - North - - 0.00 in   Unknown
9:35 PM - - - N/A% - - North - - 0.00 in   Unknown
9:55 PM - - - N/A% - - North - - 0.00 in   Unknown
10:15 PM - - - N/A% - - North - - 0.00 in   Unknown
10:35 PM - - - N/A% - - North - - 0.00 in   Unknown
10:55 PM - - - N/A% - - North - - 0.00 in   Unknown
11:15 PM - - - N/A% - - North - - 0.00 in   Unknown
11:35 PM - - - N/A% - - North - - 0.00 in   Unknown
11:55 PM - - - N/A% - - North - - 0.00 in   Unknown